Theta_e
306 307 308 309 309 308 308 307 307 306 306 306 305 305 304 304 304 304 304 305 305 306 306 307 307 307 307 307 306 306 305 306 307 307 307 307 307 305 305 305 305 305 305 308 311 311 311 312 312 313 314 314 314 316 315 314 314 314 314 313 312 312 313 315 315 315 314 316 316 315 316 315 328 342 339 333 327 329 336 340 343 344 345 346 349 350 349 349
305 306 307 308 308 309 308 308 307 307 306 306 305 305 304 304 304 304 304 305 305 305 306 306 307 307 307 306 306 305 305 306 306 306 307 308 305 304 306 306 307 307 306 310 312 310 311 311 311 312 312 313 314 315 315 314 314 314 315 313 313 315 314 315 315 315 315 315 316 316 316 314 325 338 338 333 330 335 341 344 346 346 346 347 349 349 349 348
305 305 306 307 308 308 309 308 308 307 306 306 305 305 305 304 304 304 304 305 305 306 306 306 307 306 306 306 306 305 305 305 305 307 311 310 304 304 306 307 308 308 308 311 310 309 312 312 312 312 311 313 313 314 314 314 314 313 315 315 315 316 316 315 314 314 314 315 316 316 316 315 319 327 331 335 337 338 341 343 347 348 346 347 348 348 348 347
305 305 306 306 307 307 308 308 308 308 307 306 306 305 305 304 304 304 304 304 305 306 306 306 306 306 306 306 305 305 305 305 306 311 314 308 302 304 308 310 309 308 311 312 310 309 311 312 312 311 311 312 312 313 313 313 314 313 315 316 316 316 316 315 313 314 314 315 316 315 316 317 317 317 320 331 339 338 339 343 345 347 347 347 347 347 348 348
304 305 305 306 306 306 307 307 308 308 307 306 306 305 305 305 304 304 304 305 305 306 306 306 306 305 306 306 305 305 305 305 309 312 310 305 302 303 310 314 309 311 315 313 310 310 311 313 311 310 310 311 312 313 313 314 314 315 316 315 316 317 315 316 315 314 315 315 316 316 316 316 317 317 318 329 337 336 338 342 343 346 347 346 346 346 347 347
303 304 304 305 305 305 305 306 307 308 307 307 306 305 305 305 305 304 304 305 305 305 305 305 305 305 306 305 305 305 305 306 309 309 306 304 304 302 309 316 310 313 318 312 310 311 311 312 310 310 310 310 312 312 312 314 314 315 316 315 316 317 315 316 316 315 316 315 315 316 317 316 317 317 320 328 336 339 340 343 344 345 347 347 347 346 346 345
302 303 303 304 304 305 305 305 306 307 307 307 307 306 305 305 305 305 304 304 304 304 304 304 305 305 306 305 305 305 305 306 307 307 305 304 304 302 306 317 318 318 317 311 310 310 310 311 310 310 310 310 312 312 312 313 314 314 315 315 316 316 316 316 317 316 316 315 316 316 316 316 316 318 326 330 338 344 343 343 343 344 348 347 346 345 345 344
301 301 302 303 303 304 304 304 305 305 306 307 307 306 306 305 305 305 304 304 304 304 304 304 305 305 305 305 305 305 305 306 306 306 305 304 305 303 303 314 321 320 315 310 310 309 310 311 311 311 310 310 311 312 313 313 314 313 313 315 316 315 315 315 316 316 316 316 316 316 316 316 319 325 331 334 340 345 343 343 343 345 347 346 345 345 345 344
301 301 301 302 302 303 303 304 304 304 305 306 307 306 306 306 305 305 304 304 303 304 304 304 305 305 305 306 304 305 305 306 306 305 304 304 304 303 303 308 314 318 314 310 309 309 311 310 311 312 310 311 311 312 313 313 313 313 313 314 315 315 316 315 315 315 315 316 316 316 315 318 329 334 335 338 343 345 344 344 343 344 346 346 346 346 345 344
301 301 301 301 302 302 302 303 303 304 304 305 306 306 306 306 305 305 304 304 302 302 304 304 305 305 305 306 304 305 305 304 305 305 304 304 303 303 304 304 308 314 315 310 308 308 310 311 311 311 311 311 311 312 313 312 313 314 313 313 315 314 315 316 316 315 315 316 315 316 315 320 334 339 339 343 345 344 344 345 344 344 346 346 346 346 346 345
301 301 301 301 302 302 302 302 302 302 303 304 305 306 306 306 305 305 304 304 303 303 303 303 304 304 305 305 303 305 305 304 305 305 304 305 304 304 304 304 305 310 313 311 309 309 310 312 312 311 311 311 311 311 312 313 313 315 314 313 314 314 315 316 316 316 316 316 315 316 315 321 333 337 341 347 345 345 346 346 346 345 345 346 346 345 346 346
300 300 301 301 301 302 302 302 301 301 302 303 304 305 306 306 305 305 305 304 304 303 303 303 303 304 305 304 303 305 305 304 305 305 305 305 304 304 304 303 304 307 310 310 309 309 310 311 312 310 310 311 311 311 312 313 313 314 313 313 314 313 314 314 315 315 315 316 316 316 315 319 330 334 342 347 345 345 346 347 347 346 346 345 345 345 344 346
300 300 300 300 301 301 301 301 301 301 302 301 302 304 305 305 306 305 305 304 304 303 303 303 302 304 305 304 304 305 305 305 305 305 305 304 304 304 303 303 304 305 308 310 309 309 309 310 311 310 310 311 311 311 312 312 312 313 312 312 313 313 313 314 315 314 315 316 315 316 313 316 327 335 344 347 345 347 346 347 346 346 346 345 345 345 345 346
300 300 300 300 300 300 301 301 301 301 302 301 301 302 303 305 305 305 305 304 304 303 303 303 302 303 304 303 304 305 305 305 305 304 304 305 305 305 304 304 304 305 307 309 309 308 308 309 310 310 310 311 311 310 311 312 311 312 311 311 312 311 311 314 315 314 315 315 316 316 311 315 331 341 346 347 345 348 346 346 346 346 347 346 346 345 344 344
300 300 300 300 300 300 300 301 301 301 301 301 300 300 302 303 305 305 304 304 304 304 304 303 303 303 302 302 303 304 303 304 304 304 304 305 305 306 305 305 305 306 307 308 308 308 309 309 309 310 309 310 310 310 310 311 311 311 310 309 310 309 311 315 315 314 316 314 316 316 312 321 338 344 346 347 347 350 346 346 346 346 347 346 346 345 342 343
300 300 300 300 300 300 300 300 300 300 301 301 300 300 301 302 304 304 304 304 304 304 303 303 303 302 301 302 303 302 303 304 304 304 304 305 306 306 305 305 305 306 308 308 308 309 309 309 309 309 310 309 310 310 310 310 310 311 310 309 309 309 311 314 314 314 315 315 316 316 314 323 336 342 346 347 348 350 346 345 347 346 347 346 345 344 342 342
300 300 300 300 300 300 300 300 300 300 300 300 300 300 301 302 303 303 304 304 303 304 303 303 303 302 303 303 302 302 303 304 304 304 305 305 306 306 305 305 306 307 308 308 308 309 310 310 309 309 310 309 310 310 310 308 308 310 310 310 310 310 310 311 313 315 315 316 316 317 317 321 331 340 345 346 347 349 346 346 347 342 339 338 339 340 338 339
300 300 300 300 300 300 299 299 300 300 300 299 299 299 300 301 302 303 303 303 303 303 302 302 302 302 303 303 303 304 305 304 303 304 305 305 306 306 305 305 307 307 307 307 308 308 309 310 309 309 309 309 310 310 309 309 309 310 309 310 311 311 310 311 313 314 314 315 316 317 317 322 331 338 342 344 344 345 343 343 340 335 334 333 334 336 335 337
300 300 300 300 300 300 299 299 300 300 300 299 299 300 301 302 303 303 303 303 302 302 302 302 301 301 302 303 302 303 304 303 303 304 305 305 306 306 306 306 307 307 307 307 308 308 309 310 310 309 309 309 310 310 310 311 311 312 311 310 311 309 309 312 314 313 315 315 316 318 316 321 330 335 340 342 341 340 336 335 335 333 334 335 335 336 337 339
300 300 300 300 300 299 300 299 300 300 300 299 300 302 302 303 303 303 303 302 302 302 302 301 301 301 300 301 302 303 303 303 303 304 306 306 306 305 305 306 307 307 308 308 308 308 309 310 310 309 310 310 309 311 311 312 313 313 312 311 311 309 309 313 314 313 315 314 315 317 316 321 327 331 339 340 338 335 334 335 335 334 334 336 337 337 339 340
300 300 300 300 299 299 299 299 299 300 300 299 300 301 302 301 302 302 302 302 302 303 302 301 302 301 301 302 303 303 302 302 304 304 306 306 306 305 304 306 307 307 308 308 308 309 309 310 310 310 310 310 310 310 311 312 313 313 311 310 310 310 311 313 314 313 314 314 315 316 316 320 323 328 337 339 337 334 335 337 337 336 335 337 339 340 340 338
300 300 300 299 299 299 299 299 299 299 299 300 300 301 301 301 303 302 302 301 302 303 302 301 302 302 302 302 303 303 302 302 303 303 305 306 305 304 304 305 307 308 309 308 309 309 309 309 310 310 310 310 310 310 312 312 312 312 311 310 309 310 311 313 314 313 314 313 314 316 316 319 327 333 339 340 338 336 336 339 338 335 334 337 339 338 339 338
300 300 300 299 299 299 299 299 299 299 299 300 300 301 301 302 302 302 302 301 301 302 301 301 302 301 302 303 303 303 301 302 302 303 305 306 305 304 304 305 307 309 308 308 309 309 308 308 310 310 309 309 310 311 312 312 311 312 311 309 308 310 311 310 312 314 314 313 315 317 314 323 338 342 343 341 339 339 339 341 339 336 335 336 338 337 337 338
300 300 300 299 299 299 299 299 298 298 299 299 300 300 301 302 302 302 302 302 301 302 302 302 302 302 302 303 304 303 301 301 302 303 305 305 305 304 304 306 307 309 309 309 310 309 308 308 310 310 309 309 309 310 311 311 311 312 312 310 309 311 311 310 312 314 314 314 316 315 313 322 336 340 343 342 340 341 342 342 340 338 337 335 337 337 337 337
300 300 299 299 299 299 299 298 298 298 298 299 299 300 302 302 301 301 302 302 301 302 303 303 303 303 304 304 304 303 302 302 301 303 305 305 305 304 305 306 307 308 309 309 309 308 309 309 310 308 308 308 308 309 310 310 310 311 312 312 312 313 312 312 314 313 312 311 314 314 311 316 327 334 342 342 340 341 341 340 340 340 338 336 338 338 338 337
300 299 299 299 298 298 298 297 298 299 298 299 300 301 302 301 301 301 302 301 302 303 304 304 304 304 305 304 303 302 302 302 302 304 305 306 306 305 305 305 307 309 309 309 309 309 310 310 309 308 308 308 308 308 309 310 310 310 311 312 313 314 313 312 313 311 310 310 314 316 312 314 321 328 340 342 339 339 339 338 339 339 339 338 338 338 338 337
299 299 299 298 298 298 298 298 299 298 298 299 300 300 300 300 301 301 302 301 303 304 304 303 303 303 304 304 303 302 303 303 303 303 304 305 306 305 305 305 306 308 309 310 310 310 310 310 308 308 308 307 307 308 309 310 310 310 312 311 312 313 312 312 312 310 311 312 315 316 312 313 316 324 339 341 338 339 339 338 338 339 340 339 338 339 338 337
299 299 299 298 298 298 298 299 299 297 298 299 299 300 300 300 301 301 301 303 305 304 305 303 302 303 303 304 303 302 304 304 303 303 304 306 306 305 304 306 306 308 309 310 310 311 311 309 308 308 308 307 308 308 309 309 310 311 312 312 312 312 312 312 312 310 312 313 311 312 312 311 311 322 338 339 337 339 340 338 338 338 339 339 339 340 338 338
298 298 298 298 298 298 298 298 299 298 299 299 298 298 299 299 301 302 301 305 305 303 304 303 302 303 303 303 302 302 304 304 303 303 304 305 306 305 305 306 306 308 309 310 310 311 310 310 309 308 308 308 308 309 309 309 310 312 312 312 312 313 313 312 312 310 311 313 310 310 312 309 309 322 335 336 333 336 339 338 338 338 338 339 339 340 339 338
298 297 297 298 298 298 298 299 299 298 298 299 297 297 299 299 301 302 302 306 306 304 303 302 303 303 304 304 303 303 303 304 304 303 304 305 305 305 305 306 307 307 308 309 310 310 310 310 309 309 309 309 309 309 309 309 310 311 311 311 312 312 313 313 313 311 311 312 311 309 311 310 309 318 329 332 331 333 336 338 338 337 337 337 338 339 338 338
298 297 296 297 299 298 298 298 298 298 299 299 297 297 300 301 301 301 303 305 306 305 302 302 304 304 305 305 303 303 304 305 304 303 304 305 305 305 305 306 307 307 309 309 310 310 310 310 310 309 309 309 309 308 308 309 309 310 310 310 311 311 312 312 312 312 312 312 310 309 312 310 308 314 324 329 330 331 333 337 338 337 338 338 337 338 338 337
298 297 296 297 299 298 298 298 298 299 299 298 298 299 300 301 300 301 303 305 307 307 305 303 304 305 305 305 303 303 304 305 304 303 305 305 305 305 305 306 307 308 309 309 310 310 310 310 310 310 310 309 309 308 308 309 308 310 309 309 310 310 312 313 312 313 312 311 310 310 312 311 309 314 324 328 329 330 331 334 336 337 338 338 337 339 339 339
297 297 297 297 299 299 299 299 297 298 298 297 298 300 300 300 301 301 302 306 309 308 308 306 305 305 305 304 303 303 304 305 304 304 305 305 305 305 304 305 306 308 309 310 310 310 310 311 310 310 310 309 309 308 307 308 308 309 308 308 310 311 314 315 313 312 312 311 312 311 312 311 309 314 324 328 327 328 329 331 335 337 338 337 338 339 340 338
296 298 298 298 299 299 299 299 298 297 298 298 299 300 300 300 302 302 303 307 308 308 308 308 306 305 305 304 304 304 305 305 304 304 305 305 306 305 304 305 306 307 309 310 310 310 311 312 310 310 310 309 309 309 309 309 308 309 309 309 309 310 313 314 312 312 311 311 313 313 312 310 310 318 328 329 327 327 328 331 335 337 337 336 338 340 338 335
297 298 298 299 299 300 300 299 298 297 298 300 300 300 300 301 303 304 305 306 307 307 307 307 308 307 306 305 304 304 305 305 304 304 305 306 306 306 305 305 306 307 309 310 311 310 311 311 311 310 311 310 309 309 310 309 308 309 310 309 309 310 311 312 313 314 312 312 314 313 313 315 319 326 334 334 333 330 328 333 336 336 337 338 339 339 334 331
298 299 299 299 300 300 300 299 298 297 299 300 301 300 300 301 303 303 304 306 306 306 307 308 310 309 307 305 304 303 304 305 304 305 305 306 306 306 305 305 306 307 309 311 311 310 311 311 310 310 310 310 310 310 310 309 309 309 309 308 310 312 312 311 314 316 313 314 316 311 313 321 325 329 333 335 334 332 331 334 335 335 338 339 339 336 332 331
299 299 299 299 299 299 299 298 298 298 299 300 300 300 300 302 303 303 304 305 305 305 307 309 310 310 308 306 303 303 304 305 304 305 306 306 306 306 305 305 306 307 308 311 311 311 311 311 310 309 310 310 310 310 310 310 310 309 308 309 311 312 313 312 312 314 313 314 315 311 313 318 319 325 333 334 333 334 334 335 335 335 339 339 337 334 332 332
299 299 299 299 300 300 298 297 298 299 300 300 299 299 300 302 302 303 304 304 304 305 307 308 310 310 308 305 303 303 304 305 305 305 306 306 307 307 305 305 305 306 307 309 310 311 311 310 310 309 310 310 310 310 310 310 310 310 309 310 311 311 312 312 312 313 313 313 314 313 313 314 315 323 332 332 332 334 335 335 335 335 338 338 336 333 331 331
299 299 299 299 300 300 298 297 299 300 300 299 298 299 300 301 302 303 303 304 304 305 306 306 308 310 308 305 304 304 304 305 305 306 306 306 307 307 305 306 305 305 307 308 309 310 310 311 310 309 310 310 310 310 310 309 309 310 311 310 310 311 310 311 312 312 313 313 313 313 314 314 316 324 330 330 332 334 334 336 335 334 336 337 335 332 331 330
300 299 299 300 300 300 298 299 301 301 299 298 299 299 300 300 301 302 303 303 304 305 305 305 307 310 309 306 305 304 305 306 305 306 307 306 307 306 305 305 305 305 306 307 308 310 310 311 310 309 309 310 309 310 310 310 309 309 310 309 309 310 310 310 310 310 311 311 311 314 317 316 317 324 328 329 333 334 334 336 335 334 336 336 334 331 330 329
300 300 300 300 300 299 299 300 300 299 297 299 300 300 300 301 302 302 302 303 304 304 304 305 306 309 309 307 307 306 305 306 305 306 306 306 306 306 305 305 305 305 306 307 308 309 309 311 310 309 310 310 310 310 310 311 310 310 309 309 309 310 310 310 310 309 309 310 311 312 314 316 321 325 323 325 333 335 334 336 335 334 336 335 332 329 328 327
300 300 300 300 300 300 300 299 298 298 298 300 301 301 301 302 302 302 302 302 304 304 305 305 306 309 309 308 308 307 306 306 305 306 306 306 306 307 306 305 306 306 306 307 307 309 310 311 310 310 309 310 310 311 311 311 311 310 310 310 310 311 310 309 310 311 310 311 314 312 311 318 329 331 327 327 332 335 335 336 335 335 336 334 330 327 326 326
300 300 300 300 300 300 300 298 298 299 300 300 300 300 301 301 301 301 302 302 303 304 305 306 307 309 310 309 309 308 307 307 306 306 306 306 306 306 306 306 306 306 307 307 308 309 310 310 310 309 309 309 310 310 310 311 311 311 310 310 311 311 310 310 310 312 312 311 315 315 313 320 330 335 336 334 333 335 335 334 335 335 334 331 328 327 326 326
300 300 300 300 300 300 300 300 300 301 301 301 301 301 301 301 301 301 302 303 304 304 305 306 306 308 310 309 309 310 310 307 306 307 307 307 307 306 306 306 306 306 307 308 309 309 309 310 310 310 310 310 310 310 310 311 311 311 311 310 311 310 311 312 311 313 313 311 314 313 312 320 330 333 335 334 333 334 334 333 334 333 332 330 327 326 326 325
301 300 300 300 300 300 300 300 301 301 302 302 302 302 302 302 302 302 303 304 304 304 305 306 306 307 308 309 309 310 310 309 307 307 307 308 307 306 305 306 306 306 307 309 310 308 309 310 310 310 310 310 311 311 310 311 310 311 311 310 311 311 311 313 312 313 312 311 312 311 311 324 334 332 331 332 332 333 334 334 332 330 330 329 326 326 325 324
301 301 301 301 301 300 300 300 300 301 302 303 304 304 304 304 304 304 304 305 305 305 306 306 307 307 308 309 310 310 310 310 310 310 308 309 309 306 305 306 306 306 309 311 311 309 309 311 311 311 311 310 311 311 310 311 310 311 311 310 310 311 311 312 312 311 311 311 311 310 314 326 333 332 331 332 331 333 335 334 331 329 328 327 326 325 324 324
301 302 301 302 302 302 301 301 301 301 302 302 303 305 305 305 305 305 305 306 305 305 307 307 308 309 310 311 311 311 310 311 312 312 310 311 311 307 305 306 306 308 311 311 310 309 309 310 311 312 312 310 309 310 310 311 310 310 311 311 310 311 312 313 312 312 312 311 310 311 315 321 328 333 333 331 331 333 334 332 330 328 327 326 325 324 324 324
301 301 300 301 302 303 303 302 302 301 302 302 303 304 305 305 305 305 305 306 305 305 307 309 309 309 310 311 311 312 312 312 313 314 312 312 311 307 306 307 306 308 310 308 308 310 309 309 310 311 312 311 310 311 310 310 310 310 311 311 311 312 312 313 313 313 313 311 311 315 317 318 323 331 333 332 331 332 333 330 328 327 326 324 324 324 324 323
300 300 300 300 301 302 303 303 303 303 303 303 303 304 305 305 306 306 305 305 306 306 307 310 311 309 309 309 311 313 314 314 316 318 317 316 313 309 307 307 307 307 307 307 309 310 308 309 311 311 311 312 312 313 312 311 310 310 311 311 312 313 312 313 314 313 314 314 314 317 319 318 320 325 328 332 332 331 331 329 326 326 325 324 323 323 323 322
300 300 300 300 301 302 302 303 303 304 304 304 305 305 305 306 307 307 306 306 307 308 307 310 312 311 310 309 310 312 313 313 315 318 319 319 317 313 309 308 308 308 308 308 309 310 309 309 311 311 311 312 314 315 313 312 311 311 311 310 311 312 312 313 314 314 316 316 316 317 318 319 324 326 327 331 331 330 330 328 326 325 324 323 322 322 322 322
299 299 299 300 301 303 304 304 304 305 305 305 306 306 306 307 307 308 307 307 308 308 308 310 311 311 312 311 312 312 312 313 314 316 317 318 318 316 314 313 311 308 308 310 310 310 310 310 311 311 310 312 314 314 314 315 315 314 312 311 312 313 313 314 314 314 315 316 316 317 317 319 327 331 330 331 330 329 328 327 326 325 323 322 321 321 321 321
299 299 299 300 301 303 304 305 306 306 306 306 306 307 307 307 307 307 308 308 308 309 309 310 311 312 313 314 315 314 313 314 314 315 315 316 317 317 316 316 314 310 309 311 311 310 310 310 311 311 309 312 314 315 315 316 316 315 315 315 314 313 313 314 314 314 316 316 315 316 316 319 327 331 330 330 329 328 328 327 325 324 323 322 321 321 321 320
Wind_Speed
20 19 17 15 14 13 12 12 12 12 12 13 13 13 13 13 14 14 15 15 16 16 16 16 16 15 15 17 18 20 23 22 19 16 15 15 10 8 12 12 12 9 7 7 7 8 7 10 11 11 10 8 7 6 8 8 6 6 6 8 7 8 7 5 7 4 1 6 7 2 3 5 3 2 1 4 10 9 11 9 7 7 4 7 18 28 28 26
19 19 17 15 15 14 13 13 12 12 12 12 13 13 13 13 14 14 15 15 15 16 15 15 15 15 15 17 18 21 23 20 20 19 17 14 7 5 9 10 12 11 9 9 10 11 9 10 12 12 10 7 7 7 9 8 8 8 6 7 8 7 2 2 4 3 2 2 2 1 2 5 4 1 1 5 11 12 12 11 10 10 11 14 21 27 27 26
17 18 17 16 16 16 15 14 13 12 12 12 12 13 13 12 13 14 15 15 15 15 15 14 14 16 16 16 18 21 20 20 17 12 6 6 0 6 8 9 11 11 12 12 10 11 10 9 12 13 10 8 7 8 9 9 9 9 7 7 8 5 1 2 4 2 2 2 3 2 2 4 3 1 2 6 10 13 13 12 13 13 16 17 20 23 27 26
17 17 17 16 16 16 16 15 14 13 13 12 12 12 13 13 13 14 14 14 15 15 14 13 14 16 16 15 18 19 18 16 8 4 7 6 4 11 7 8 11 12 14 14 10 11 11 8 11 13 10 9 8 9 10 10 8 8 8 8 5 2 3 5 5 4 3 3 4 4 4 5 2 3 6 6 10 12 12 13 14 15 19 20 20 22 25 24
17 17 16 16 16 16 16 16 15 14 13 13 12 12 12 12 13 13 14 14 14 14 13 13 14 15 15 15 16 16 14 8 3 9 7 5 7 13 7 6 10 12 14 16 12 11 12 11 11 11 9 9 9 9 10 12 9 7 9 11 4 1 5 4 5 4 2 3 5 5 6 5 4 6 7 8 10 8 10 12 11 14 18 20 21 22 23 22
18 17 17 17 16 16 16 16 16 16 15 13 12 12 12 12 12 13 13 13 14 14 14 14 14 14 14 14 15 13 10 3 4 5 6 4 9 14 9 3 9 14 16 17 14 12 13 13 12 11 9 10 12 11 11 13 11 8 9 12 7 4 4 3 5 3 2 5 6 6 6 6 8 9 6 11 11 2 5 10 10 13 18 20 21 20 21 20
20 18 18 18 17 17 17 17 16 16 17 15 13 12 12 12 12 12 12 12 12 12 13 13 14 14 13 14 13 9 9 8 2 6 5 3 8 14 13 6 5 16 19 19 17 14 13 15 14 12 10 10 11 13 11 12 13 11 9 10 10 8 6 4 3 3 4 7 7 7 7 7 10 7 4 10 8 2 4 10 10 14 18 20 20 18 19 19
20 20 19 18 18 17 17 17 17 17 17 16 14 13 12 12 12 12 11 11 11 12 13 13 13 13 12 13 10 6 10 11 5 8 9 7 7 13 13 6 3 15 19 20 20 15 14 16 16 12 11 11 10 12 12 11 13 14 11 7 7 8 8 8 6 6 7 7 7 8 9 9 8 6 5 8 7 4 7 11 13 15 17 18 19 18 18 17
19 19 19 18 18 18 18 17 17 17 17 16 16 14 13 12 11 11 11 10 10 11 11 12 12 12 11 10 8 7 6 6 5 8 7 7 9 12 10 6 1 11 17 20 21 18 14 13 16 12 10 10 9 12 12 11 10 13 15 8 6 8 7 8 8 9 9 6 6 8 10 8 4 5 6 7 6 6 8 12 16 17 18 18 17 17 17 17
19 19 19 18 18 18 18 17 17 18 17 17 16 16 14 12 11 11 10 10 11 12 11 11 11 10 10 9 7 7 1 1 2 4 4 9 12 13 8 6 5 8 14 17 20 20 15 12 15 10 7 7 9 10 13 12 5 7 15 12 9 8 6 7 7 8 8 7 8 9 10 6 2 5 6 7 7 7 10 12 14 16 18 17 16 17 16 17
19 19 18 18 18 18 18 18 18 18 18 17 16 16 15 13 12 11 10 10 11 11 10 10 10 10 11 8 8 8 0 2 2 3 9 15 15 14 11 9 7 8 12 13 18 20 18 14 11 8 5 5 9 10 12 12 5 3 10 12 11 11 9 9 9 9 7 7 8 9 10 6 5 6 4 8 8 8 11 13 13 15 16 17 18 17 15 15
19 19 19 18 18 18 18 18 17 17 18 17 16 15 16 14 12 12 11 10 9 9 9 10 10 10 11 10 13 15 10 11 12 14 18 17 16 16 15 12 7 9 10 11 16 19 18 13 11 11 5 3 9 8 8 12 8 5 7 8 11 11 11 13 12 11 10 7 6 7 8 8 10 7 4 9 9 9 12 14 14 14 15 16 17 16 14 15
19 19 19 19 19 18 18 18 18 17 18 18 16 15 16 15 13 12 11 10 10 9 9 10 10 10 12 10 13 19 22 23 22 23 23 18 18 17 14 11 8 10 11 11 14 17 14 9 12 13 5 5 8 3 3 10 9 8 8 8 8 8 10 14 13 12 12 8 6 7 7 9 11 7 7 8 9 11 12 13 15 15 15 16 16 14 13 13
19 19 19 19 19 18 18 18 18 17 17 18 17 16 16 15 15 14 12 11 11 10 10 10 10 11 11 12 16 21 25 25 24 25 22 16 14 12 10 9 8 10 11 10 11 13 11 8 10 10 5 7 4 4 4 9 9 9 10 8 7 7 7 11 13 13 12 8 8 10 8 8 10 9 8 8 10 14 14 14 16 15 14 15 14 13 12 11
19 19 19 19 19 19 18 18 18 17 17 17 17 17 16 14 15 15 13 12 12 12 11 10 10 9 10 13 16 17 18 18 21 21 17 11 11 9 9 11 10 9 10 9 8 10 11 9 9 8 8 6 3 6 8 7 8 9 9 8 8 7 5 10 12 14 14 10 11 12 7 5 9 9 9 9 11 13 13 14 16 16 17 16 14 13 12 12
20 20 19 19 19 19 19 18 18 18 17 17 18 17 16 15 15 15 15 14 13 13 12 11 10 8 8 9 6 7 9 10 12 12 10 10 11 8 8 13 11 9 10 9 8 10 11 10 8 7 8 8 7 9 8 6 8 10 9 8 9 10 6 8 10 14 15 11 12 14 9 4 7 9 11 11 9 11 12 14 16 13 12 12 12 12 11 11
21 21 20 20 20 19 19 18 18 18 17 17 18 17 15 15 14 14 15 14 15 13 11 11 8 7 9 8 6 6 5 5 5 5 6 8 10 9 9 13 11 11 11 10 10 12 12 10 7 6 7 8 10 10 9 10 9 9 10 8 8 12 9 6 9 12 14 11 12 15 11 1 7 11 12 11 9 10 9 10 11 10 11 9 6 7 7 5
22 21 21 20 20 20 19 19 18 18 18 17 18 17 16 15 14 13 13 11 9 7 8 9 6 5 7 9 10 7 2 2 4 5 6 7 9 10 10 11 12 13 13 11 12 13 11 9 7 8 9 9 11 11 11 11 10 11 11 8 7 10 11 8 7 10 14 12 12 15 12 3 7 11 11 11 9 6 4 6 7 11 14 12 7 7 5 2
21 21 21 21 20 20 20 19 18 18 17 18 17 15 14 12 9 10 12 11 7 6 5 6 10 6 2 4 6 6 5 5 6 7 8 8 8 9 9 9 12 15 13 10 12 14 11 8 9 10 11 13 13 14 12 7 8 12 13 11 9 9 11 9 6 9 14 13 12 14 13 8 9 10 10 11 9 10 13 13 10 9 8 8 10 8 5 4
20 20 20 20 20 20 20 19 18 17 17 16 14 11 10 7 6 7 9 12 12 13 11 7 13 13 9 3 1 4 4 5 6 7 9 9 9 11 10 11 13 13 11 11 13 14 11 10 12 12 13 15 16 17 13 5 5 11 13 12 11 9 10 11 8 8 10 11 11 14 13 10 10 10 10 11 13 12 11 14 11 8 4 5 10 10 6 4
20 20 19 19 19 18 19 19 18 16 16 15 12 9 7 8 7 4 3 9 14 17 18 14 14 17 16 12 4 4 2 4 6 7 8 9 12 13 11 13 14 11 12 14 12 11 12 12 13 14 14 15 17 18 12 6 7 10 11 10 10 9 8 11 10 8 8 10 10 13 12 11 11 9 10 11 13 10 8 13 13 13 10 7 9 11 10 7
20 19 18 18 17 16 17 17 15 15 14 12 10 9 9 10 7 3 4 8 12 17 19 18 18 18 18 19 14 5 5 6 7 9 10 10 13 13 13 15 14 11 13 14 12 10 12 12 14 16 14 14 16 17 12 8 9 8 9 9 9 9 7 9 9 8 7 8 8 13 12 9 8 5 8 11 11 9 7 9 13 15 13 9 10 13 13 11
19 18 18 16 16 15 15 14 14 14 14 11 11 12 11 9 5 3 6 7 10 14 16 18 19 18 18 20 17 11 9 9 8 9 13 12 13 13 13 16 15 13 15 15 13 11 10 11 15 15 13 15 16 16 14 9 8 7 8 9 8 11 9 6 9 10 8 6 5 12 12 7 8 6 7 10 10 9 6 7 11 14 14 11 12 14 12 10
19 18 16 15 14 14 13 13 13 14 14 13 15 15 11 8 5 4 5 6 10 12 15 19 18 16 18 15 11 14 13 11 10 8 13 14 12 10 12 16 17 14 14 17 17 13 10 10 13 14 14 17 16 16 16 10 8 9 10 10 8 12 10 3 9 12 8 5 5 11 11 6 8 8 7 8 9 10 9 9 9 11 13 11 11 12 10 8
19 17 15 14 12 12 12 13 13 13 13 13 15 14 11 10 9 7 4 5 8 8 11 16 14 13 16 12 10 12 11 11 12 9 10 15 13 9 10 12 13 13 16 19 17 13 10 9 13 16 16 17 16 15 17 13 9 9 10 10 7 11 10 5 10 12 8 7 9 12 10 7 11 11 9 8 9 10 10 11 11 11 13 12 11 12 10 9
19 16 14 12 11 12 11 9 7 8 9 11 11 9 9 10 12 11 6 3 7 5 7 10 10 10 13 13 11 10 8 11 14 12 10 14 14 9 9 10 8 12 16 16 12 8 8 11 14 16 16 18 16 14 17 16 10 7 10 9 5 8 11 8 10 11 8 7 9 12 10 6 10 12 11 10 11 12 10 11 12 11 12 12 12 12 11 11
18 15 13 11 10 10 8 6 6 7 7 5 3 2 5 7 10 10 5 4 6 5 9 6 6 10 13 14 16 11 4 7 13 15 14 13 13 10 10 11 9 10 12 11 8 7 10 15 15 16 16 16 14 12 16 18 11 6 11 11 6 6 8 8 8 10 7 3 6 11 11 6 7 11 14 14 13 13 12 11 11 11 12 13 13 13 13 13
17 15 13 11 10 10 9 9 10 9 7 2 2 2 2 5 7 6 3 4 3 6 8 5 4 9 9 13 20 12 3 10 12 14 16 15 13 9 10 14 13 12 13 11 8 7 11 16 16 17 15 12 12 12 15 19 13 5 11 12 8 6 6 6 7 8 5 2 5 12 11 8 6 9 13 14 15 14 14 13 12 13 14 14 15 14 15 14
17 16 13 11 10 10 10 11 12 10 6 3 4 2 2 4 5 3 3 4 3 5 6 7 7 9 9 13 19 13 3 6 7 11 17 16 12 7 7 12 15 13 14 14 9 7 9 14 15 15 13 10 12 13 15 18 12 6 11 10 7 6 5 5 7 7 5 6 10 13 14 10 7 9 11 12 14 15 14 13 13 13 15 15 15 15 15 14
17 17 15 12 9 8 7 8 11 10 6 5 6 6 2 6 4 3 5 3 3 4 4 6 7 10 13 14 15 14 7 4 5 13 15 13 11 8 4 7 13 12 12 14 10 5 8 12 12 12 11 9 12 12 14 18 13 8 10 10 7 7 6 5 6 5 5 8 12 13 15 13 9 9 11 11 13 15 13 12 13 14 15 16 15 14 14 13
17 17 14 10 7 5 4 4 5 5 5 6 6 5 3 5 2 4 5 1 2 2 3 8 9 11 16 14 12 13 10 5 10 16 13 11 12 10 7 8 9 10 9 11 10 6 10 13 10 11 11 10 11 12 13 17 14 10 10 10 8 7 5 5 6 5 7 9 12 14 14 13 11 7 10 12 15 17 15 14 16 17 17 17 15 14 14 13
17 17 13 9 6 4 4 4 4 1 2 4 4 2 3 3 3 5 3 1 1 2 3 8 10 11 14 13 12 14 10 7 13 17 13 12 12 11 12 11 10 11 10 11 11 9 10 12 11 11 11 12 13 11 12 15 14 11 11 11 10 8 6 8 8 8 9 7 6 11 12 11 10 6 8 13 15 18 16 15 18 19 19 18 16 14 13 12
17 15 11 7 5 4 4 4 3 2 3 3 3 2 3 4 4 7 5 1 1 1 1 4 9 11 12 11 12 13 9 8 14 16 14 14 12 12 15 14 14 12 9 12 13 9 9 11 13 13 10 13 14 11 10 12 13 13 13 12 11 9 8 10 9 8 10 5 3 8 9 8 8 6 9 13 15 17 17 16 16 18 18 18 16 14 13 12
16 13 9 5 3 4 3 3 3 1 1 2 3 3 6 6 3 5 4 2 3 2 3 1 6 12 11 8 11 13 7 9 16 16 14 14 11 12 13 15 18 12 7 12 11 10 11 9 13 14 10 14 16 12 11 12 13 13 12 12 11 9 8 8 8 8 10 8 7 8 7 7 7 5 6 8 10 13 15 13 11 13 14 13 13 13 14 14
15 9 5 2 1 1 2 3 4 4 3 3 4 5 7 6 3 5 3 3 4 3 4 4 5 11 10 7 12 13 3 6 16 14 12 13 10 11 12 12 17 14 9 11 8 10 12 8 13 14 10 15 18 13 12 12 11 12 11 11 11 10 7 4 1 1 4 6 7 8 5 2 2 3 4 4 6 10 14 13 12 13 13 12 13 13 13 13
12 5 1 1 3 2 2 4 4 5 3 3 5 5 3 2 3 5 5 5 4 5 6 3 7 8 8 7 11 13 3 4 15 11 9 12 10 12 13 11 15 14 11 11 7 9 9 7 16 15 9 16 18 13 14 13 9 9 11 12 11 11 8 4 2 3 0 4 6 8 7 4 4 4 5 7 8 11 14 14 14 15 16 15 13 13 13 13
9 4 0 3 5 3 1 3 6 5 3 3 4 3 1 0 3 5 7 6 4 6 6 1 5 5 8 8 9 13 7 6 13 10 8 11 10 12 14 12 15 15 12 9 7 8 8 8 15 15 12 16 16 12 14 14 10 8 10 11 9 8 7 5 5 4 5 7 5 9 11 9 8 6 7 11 12 13 14 14 16 17 17 15 13 13 14 15
7 2 2 5 5 2 1 3 7 5 3 3 4 3 2 1 3 6 7 6 4 6 6 3 1 2 7 9 10 14 11 9 12 9 8 9 7 11 14 11 13 16 14 10 7 7 7 7 11 14 14 15 14 11 12 14 13 9 8 10 9 7 7 7 7 6 8 9 6 9 12 10 8 7 10 14 15 14 15 15 17 19 19 15 13 15 16 16
5 2 1 7 5 1 3 4 6 5 3 3 3 2 1 2 3 6 7 6 5 4 5 6 4 1 5 8 11 13 10 10 12 8 7 7 6 12 14 9 12 16 15 11 8 7 7 7 8 13 15 14 11 10 10 13 12 8 9 11 9 7 8 8 7 6 7 8 7 8 10 8 8 9 13 16 17 17 17 16 17 20 20 17 15 15 17 17
4 2 2 8 4 4 5 5 5 4 3 2 2 2 2 3 3 5 7 7 5 2 3 7 6 1 5 9 11 10 8 11 12 8 6 7 6 11 15 11 12 16 16 13 10 9 8 6 8 11 15 13 10 10 11 13 12 10 10 12 10 8 7 7 8 7 6 7 7 7 7 6 6 9 13 16 17 17 18 18 17 18 19 17 16 17 16 16
3 1 2 6 2 6 5 5 3 3 3 1 2 2 3 4 4 6 6 6 5 3 3 6 6 3 4 8 10 8 7 10 11 7 6 8 6 7 12 14 13 15 15 13 11 10 7 6 8 10 11 11 11 12 14 14 14 12 9 10 11 9 8 8 10 9 8 7 6 7 7 4 5 8 12 15 16 17 20 19 16 16 18 17 16 17 17 16
3 1 3 4 1 4 4 3 1 2 2 2 2 3 4 5 5 6 6 6 5 3 3 3 5 4 2 6 7 7 7 9 10 7 6 9 7 5 12 17 15 15 13 10 11 10 5 5 9 9 9 10 11 14 15 14 15 14 11 10 11 10 10 10 9 8 8 6 3 5 6 3 5 6 7 9 13 15 16 16 14 14 15 15 16 17 17 17
3 3 2 0 2 4 5 1 1 1 1 3 3 3 3 4 5 5 6 5 4 3 2 2 3 3 2 2 5 5 6 8 9 7 7 10 7 5 14 20 18 16 12 9 12 9 3 6 9 9 9 8 7 10 13 13 13 14 13 12 12 12 12 11 8 6 7 8 6 4 5 3 4 4 3 4 10 12 12 14 15 14 13 14 18 18 18 18
3 2 1 1 2 5 4 1 2 2 2 3 4 4 4 5 6 6 5 4 4 3 3 3 2 2 3 1 3 3 2 5 7 5 5 7 6 7 15 21 20 17 11 8 10 8 5 8 10 9 10 9 7 9 12 13 13 11 12 14 15 15 15 12 8 6 7 11 11 8 5 4 5 6 5 6 10 12 12 14 15 15 14 16 18 17 17 18
1 0 1 1 1 4 3 2 3 3 4 4 5 5 5 4 4 5 6 6 5 4 4 4 4 3 3 1 3 3 2 3 4 4 3 5 6 7 14 20 19 16 12 9 10 9 6 8 9 9 11 11 11 11 11 12 12 10 12 17 17 16 17 13 7 7 8 10 12 10 6 5 7 7 9 9 10 12 13 14 15 15 15 16 17 17 17 17
2 1 1 1 1 2 2 2 3 3 4 5 4 4 4 3 2 2 4 5 4 5 5 4 4 2 2 3 4 5 4 3 2 3 4 6 6 5 13 19 19 17 14 12 12 8 5 7 10 10 9 9 9 8 9 11 12 12 15 19 18 17 18 13 9 9 9 7 9 11 9 7 8 9 12 12 12 12 13 14 15 15 16 16 16 17 17 17
2 2 2 2 1 2 2 2 3 3 3 4 4 4 5 5 4 2 1 1 3 5 5 3 3 1 3 4 6 6 5 5 4 4 5 6 6 6 12 17 18 16 13 12 13 9 4 8 11 10 9 10 10 9 10 13 15 16 16 18 18 18 18 16 13 11 9 7 8 11 12 10 9 11 14 15 14 13 14 14 14 15 16 16 15 17 18 19
2 1 1 2 3 3 2 2 3 4 5 5 4 5 6 6 5 3 1 2 4 5 3 0 2 2 3 2 4 5 5 5 6 5 5 6 7 9 11 13 15 16 13 12 13 9 5 8 11 10 7 7 7 7 10 14 16 17 17 18 18 19 20 19 16 14 11 9 8 7 11 12 11 12 14 15 16 14 14 14 14 14 15 16 17 18 19 19
2 2 1 2 3 5 6 6 6 6 6 5 4 4 5 5 5 3 1 2 4 4 2 1 4 5 4 2 0 4 4 3 5 6 3 4 7 8 10 10 11 14 14 13 11 9 6 6 11 12 8 6 4 4 8 12 14 16 18 19 19 20 21 19 17 16 13 11 9 6 9 12 10 10 13 13 12 12 13 14 15 17 16 16 19 20 19 19
2 3 2 3 4 6 6 5 5 6 5 4 4 3 4 4 5 4 1 3 3 3 1 2 6 6 5 2 0 3 5 4 4 5 4 2 5 6 7 9 8 12 15 12 10 10 7 6 11 11 8 7 4 4 7 10 12 14 17 19 19 20 21 19 17 16 14 12 11 8 8 9 4 5 9 12 12 12 14 16 17 18 18 18 19 20 19 18
4 5 4 5 4 4 4 3 3 4 3 4 3 3 3 3 4 6 3 2 3 4 3 4 7 5 4 4 3 4 6 6 4 5 5 3 2 2 2 5 7 11 14 11 10 10 8 6 9 9 7 8 6 5 8 9 10 13 16 18 19 18 17 16 16 15 14 13 13 10 8 6 5 6 9 13 14 15 17 19 18 18 20 21 20 20 20 19
7 5 4 4 4 4 4 3 3 4 3 2 3 4 5 5 6 7 4 1 1 2 2 4 6 4 3 5 5 6 6 7 6 5 4 3 2 2 1 1 3 8 12 11 9 9 9 7 7 7 7 8 8 7 6 7 9 11 12 14 18 18 16 15 15 16 16 14 12 10 8 5 8 11 12 13 15 16 17 18 17 18 22 22 21 22 20 17
Wind_Direction
311 314 312 296 280 277 282 286 289 293 299 303 307 310 311 315 316 317 317 316 318 318 319 320 321 324 322 326 324 319 317 311 304 292 269 264 264 245 254 260 259 247 232 249 244 232 205 193 188 183 193 189 207 203 181 195 195 196 213 222 226 229 230 207 196 191 156 135 135 103 31 327 345 145 199 179 204 193 170 176 162 156 143 118 125 135 145 147
310 310 313 306 290 279 278 279 284 288 292 298 301 305 308 310 314 315 315 316 316 316 317 317 320 325 326 328 323 317 315 307 295 283 268 259 266 272 263 259 252 239 226 230 222 214 203 193 182 182 195 187 190 185 176 184 191 204 215 219 229 238 218 148 195 187 207 157 91 43 38 333 335 30 221 200 192 179 174 170 163 147 124 124 130 139 145 149
312 311 312 310 302 292 284 278 279 284 286 291 295 300 304 306 311 314 315 315 314 315 315 316 323 324 325 328 322 318 315 305 289 272 243 204 18 341 288 257 247 233 220 219 221 218 217 205 184 187 198 197 192 184 185 183 189 213 222 224 232 240 127 164 213 214 237 294 310 309 348 308 304 341 279 224 192 185 188 172 168 157 141 144 142 144 149 153
316 314 313 312 308 303 295 284 278 280 282 284 289 295 300 303 307 312 314 312 312 314 315 319 322 320 322 326 322 322 314 297 277 135 126 150 43 358 309 262 247 229 216 218 230 225 223 217 193 196 205 204 194 192 199 183 185 210 217 231 239 222 217 200 202 216 239 287 294 297 298 283 281 285 273 234 199 197 197 179 178 166 151 153 151 153 156 156
324 318 317 315 312 308 302 292 281 277 277 278 283 289 292 298 302 308 309 311 314 315 318 320 320 320 320 324 326 321 306 288 120 112 127 138 28 2 330 264 241 221 207 208 217 215 212 210 199 201 208 208 191 194 206 190 197 217 215 235 255 234 228 184 177 207 238 267 276 279 282 303 309 273 261 232 212 206 194 179 179 164 153 157 158 158 158 160
331 324 322 319 316 312 306 300 289 280 276 271 275 283 286 292 296 301 305 311 316 316 318 318 320 321 318 324 322 307 285 271 92 134 146 91 17 4 2 298 226 201 193 197 199 197 201 201 197 200 206 211 197 197 206 193 204 224 217 226 226 222 224 152 164 190 236 260 267 279 297 317 290 270 259 231 220 210 172 165 165 161 154 159 161 160 162 163
334 330 326 324 322 317 311 305 298 288 281 273 270 276 280 286 290 295 301 307 313 315 315 314 317 317 321 327 311 283 259 267 296 197 205 343 346 2 11 5 196 186 185 192 194 193 196 197 199 201 203 210 203 200 202 190 200 225 225 214 213 220 217 192 189 207 243 263 272 288 296 286 274 276 266 227 207 117 161 158 152 155 153 160 164 164 165 163
334 332 329 326 323 321 317 312 306 297 288 277 271 272 272 277 282 290 296 300 308 312 314 313 315 317 324 326 306 276 253 259 257 223 249 290 317 352 3 18 172 187 189 195 194 195 197 199 203 202 207 210 202 198 193 189 201 222 229 208 207 219 221 229 238 245 252 263 268 276 277 269 274 288 264 218 185 150 167 156 149 153 156 164 167 164 164 161
332 330 329 326 324 322 320 317 313 307 300 285 273 270 270 273 276 282 288 292 301 305 312 312 310 314 314 312 296 284 262 244 237 234 267 305 307 333 350 11 297 200 198 201 198 199 199 202 204 203 221 214 197 198 190 197 205 214 223 218 206 210 211 222 229 242 247 253 261 264 264 260 270 273 236 193 172 162 164 157 154 157 164 169 167 164 162 161
329 329 327 325 323 321 320 319 316 313 310 298 282 270 266 270 270 275 281 287 297 300 307 308 308 310 298 292 274 266 264 112 257 239 319 328 314 321 328 344 324 219 208 207 202 203 202 205 204 204 246 227 199 202 194 205 214 199 218 222 219 220 212 214 222 234 243 244 246 254 261 255 212 240 214 160 160 172 165 158 160 165 170 170 167 164 161 161
326 326 324 323 321 320 320 317 317 318 315 309 297 278 267 267 268 271 276 281 295 303 308 308 306 302 286 278 253 244 84 49 333 318 320 322 317 313 307 310 304 234 219 213 207 204 204 210 206 197 235 220 196 206 204 210 220 178 211 221 225 233 231 228 233 231 238 237 230 243 257 245 205 230 208 144 153 175 167 159 167 173 171 169 167 165 164 162
321 322 321 321 320 319 319 314 316 317 314 312 306 290 274 267 268 270 271 277 291 300 311 313 305 293 280 267 246 246 269 287 292 298 302 309 305 298 294 291 270 230 228 220 208 202 204 211 207 201 205 198 192 203 208 203 211 199 201 223 219 223 232 226 226 225 227 224 211 229 244 226 209 208 144 135 153 170 170 163 168 175 171 168 167 166 166 159
318 318 318 318 319 318 317 313 313 314 312 312 310 303 285 269 264 264 265 270 281 285 297 311 303 285 275 265 254 256 267 277 285 290 291 293 291 287 277 265 239 224 232 228 209 197 200 204 207 210 211 221 195 158 174 184 200 213 208 234 216 210 227 214 209 214 219 216 198 217 229 204 193 165 115 135 161 168 170 169 171 175 171 167 168 164 157 145
315 315 314 315 316 315 315 313 311 312 311 311 311 309 298 278 263 262 265 267 274 275 281 299 295 279 266 264 270 268 267 272 277 278 280 278 273 271 252 231 218 212 216 226 213 193 191 189 205 214 213 239 212 123 169 180 193 209 204 223 225 225 215 186 190 199 204 199 191 221 239 192 158 126 120 146 169 174 175 175 173 172 169 168 164 155 146 137
312 312 311 311 312 311 313 312 311 310 308 309 309 308 304 288 271 268 270 268 270 272 276 284 278 267 270 273 274 272 266 264 264 263 263 254 242 248 222 198 197 195 195 212 208 187 186 181 196 210 195 219 232 182 191 183 190 204 203 207 213 225 182 159 183 196 197 187 190 219 232 164 138 133 157 174 180 184 182 175 173 174 171 165 157 150 149 144
309 308 307 308 309 308 309 310 310 309 306 306 305 305 302 291 278 272 272 272 272 274 275 273 262 252 273 286 273 265 253 240 249 249 237 226 225 231 198 179 179 178 180 190 189 179 184 185 194 214 198 194 206 202 196 190 195 201 209 208 197 206 192 157 177 195 201 190 189 215 228 160 141 154 175 186 184 185 189 180 171 169 162 154 153 153 149 146
305 303 304 303 304 304 305 307 308 308 305 302 302 301 298 292 283 277 276 276 275 271 259 259 262 251 256 270 272 270 252 220 231 229 212 212 220 220 188 172 170 170 167 168 177 177 182 189 186 203 211 202 202 204 202 201 198 191 205 214 190 199 207 168 160 184 201 202 193 210 234 202 138 166 179 183 184 187 199 185 154 116 91 84 83 98 97 125
305 302 300 298 299 300 300 303 305 306 304 301 299 297 295 291 282 274 269 264 262 248 240 244 243 250 240 236 257 273 279 242 242 233 219 207 212 215 198 178 166 164 161 162 178 181 183 187 185 194 205 203 202 203 206 205 199 188 191 201 187 194 210 191 158 169 186 203 201 201 217 189 146 173 177 176 181 161 80 60 78 82 90 97 91 86 86 152
307 304 300 297 295 295 295 298 300 303 303 299 299 298 293 283 266 255 244 231 216 207 228 210 194 227 298 194 236 281 283 265 259 241 215 201 200 204 209 191 167 166 169 167 179 185 184 184 193 202 202 198 200 204 209 221 214 194 184 193 194 189 205 197 151 153 181 200 201 200 207 188 172 183 179 170 147 99 78 73 61 57 78 109 120 117 130 161
309 306 303 299 295 294 293 292 294 298 299 296 298 296 278 254 237 235 218 215 225 234 255 240 202 232 279 259 260 333 283 228 236 225 192 189 187 183 193 184 172 178 185 176 174 182 186 196 202 204 201 194 196 204 209 231 227 192 183 197 203 194 196 190 155 144 186 205 197 200 205 189 184 186 180 160 121 93 96 108 106 116 138 137 124 120 127 124
312 307 303 302 299 296 293 292 291 291 292 292 290 281 259 250 254 257 202 219 232 237 252 255 227 235 257 260 275 11 332 224 229 213 181 184 185 179 179 179 179 186 192 181 167 173 191 209 209 200 201 191 191 202 200 200 202 191 191 197 202 204 190 178 165 148 183 211 197 195 204 191 187 184 172 151 124 120 137 131 136 152 165 162 132 130 137 132
314 309 305 302 300 298 296 293 288 282 284 284 274 260 257 265 276 312 298 258 245 240 245 247 241 242 248 251 250 266 291 261 238 208 182 185 191 186 177 181 189 184 184 182 167 175 198 215 209 196 200 193 187 193 190 192 197 195 201 200 202 203 173 153 161 155 177 214 193 184 201 185 160 145 138 131 125 148 171 151 150 155 163 166 145 146 153 153
317 311 305 301 299 301 298 291 286 281 275 264 254 251 258 268 274 284 274 272 267 250 239 234 236 238 237 243 240 230 242 244 236 204 179 187 200 197 186 184 192 185 182 186 180 184 196 209 205 192 190 186 180 186 191 199 206 208 208 204 205 193 182 168 166 164 176 222 207 183 196 171 120 91 98 115 126 152 173 152 153 157 161 164 153 157 163 158
323 314 305 300 299 299 297 293 287 276 265 256 252 251 256 251 229 252 261 264 273 258 238 227 224 229 231 231 214 205 220 230 232 208 179 190 198 197 200 191 190 191 187 190 192 195 199 197 190 180 176 179 179 185 195 202 205 214 216 215 209 187 191 180 151 158 167 211 215 183 192 183 157 149 123 126 143 162 171 155 156 157 151 154 154 161 164 153
328 319 308 301 299 298 298 295 280 269 264 258 255 249 244 236 224 236 253 259 267 253 230 220 216 228 222 207 185 190 210 223 226 215 182 195 198 184 197 196 194 197 188 191 197 203 201 177 170 176 180 186 188 189 195 201 200 204 215 230 228 190 184 146 143 162 174 198 198 191 201 191 179 177 147 146 167 171 182 177 170 158 150 158 162 163 160 153
332 324 312 302 299 297 295 290 277 278 273 259 261 247 226 230 227 224 225 265 269 227 173 185 191 193 189 181 172 177 206 219 215 211 193 201 207 197 193 191 201 203 188 186 200 209 185 164 172 184 186 189 194 195 193 196 205 201 196 213 229 189 185 174 168 182 195 192 182 198 219 190 177 183 158 161 177 171 180 189 181 169 162 168 170 166 159 157
335 328 316 302 292 288 285 292 296 285 273 271 292 227 199 210 213 211 214 257 256 176 145 164 171 162 169 171 169 175 195 166 179 199 202 201 205 213 209 189 191 200 181 175 198 206 175 170 182 189 187 190 195 198 191 193 211 196 169 182 190 179 186 188 190 201 203 162 154 198 225 224 196 183 163 168 178 170 177 189 185 183 179 179 178 168 162 167
340 334 319 299 285 276 270 285 288 273 273 284 126 188 210 201 202 200 224 244 213 122 131 143 131 156 171 165 170 182 113 127 160 183 187 194 197 209 218 196 190 185 174 179 184 166 170 179 182 183 189 193 195 196 185 192 211 172 151 173 183 183 191 195 205 211 201 180 193 195 207 232 216 165 159 173 180 176 178 186 191 193 189 187 183 172 169 175
338 337 324 305 292 280 266 270 271 268 285 251 200 291 319 200 206 203 238 239 166 117 118 128 132 158 163 161 180 198 165 157 184 159 166 190 200 220 235 200 192 179 175 196 190 141 171 189 182 182 192 194 195 194 181 191 204 151 154 175 177 188 202 207 218 217 200 216 222 195 185 216 219 159 162 180 188 186 179 183 193 195 195 193 185 177 172 173
331 334 328 311 300 292 271 262 262 262 274 257 251 304 303 184 200 208 219 241 127 107 104 141 158 161 157 160 182 200 194 171 151 144 160 182 187 210 235 189 192 179 174 203 208 151 165 184 185 189 199 194 189 184 176 191 195 154 173 188 179 194 203 208 225 231 221 221 225 206 189 208 218 174 173 187 192 189 181 182 189 191 195 195 187 179 171 168
327 332 328 308 297 301 280 274 286 266 249 253 260 282 243 182 219 219 197 187 73 99 145 156 149 152 164 169 173 188 191 156 150 157 163 170 175 187 177 166 184 176 171 197 201 162 161 177 186 193 200 188 175 174 177 191 190 169 186 193 183 191 192 203 210 214 229 227 220 210 193 204 221 194 175 182 185 185 184 185 186 187 192 194 188 178 170 167
325 330 326 303 283 279 271 289 334 360 203 230 231 236 221 185 221 233 213 78 119 204 180 159 151 156 173 177 167 174 179 162 163 166 164 169 175 183 182 178 175 172 178 186 182 169 170 180 180 182 195 187 174 173 179 188 189 187 193 191 191 188 183 203 201 200 221 225 209 199 187 201 224 209 170 176 183 185 187 191 188 185 188 189 186 177 167 161
326 328 323 302 277 264 266 279 297 56 105 184 202 219 224 198 212 232 239 9 52 294 3 148 162 159 168 176 165 168 176 164 168 172 170 173 175 182 192 192 186 186 183 177 177 173 170 179 180 177 186 192 190 184 178 183 186 193 195 188 193 190 183 201 199 200 212 192 150 187 189 207 219 187 162 175 186 187 189 195 190 185 186 184 178 169 153 142
325 324 315 298 281 267 253 246 234 184 122 203 212 205 204 206 247 259 247 37 37 337 353 356 169 158 166 175 159 164 170 154 167 174 171 175 180 180 189 192 191 196 181 172 182 179 171 176 183 183 179 186 198 198 183 180 183 194 201 196 203 201 191 203 202 203 205 180 158 177 189 215 210 154 133 161 179 185 188 187 177 180 183 173 163 155 138 134
328 327 311 293 322 300 230 207 201 199 217 237 223 208 202 209 302 329 319 6 11 351 338 299 196 166 167 163 159 170 181 153 170 177 173 179 185 178 182 186 187 192 182 173 178 179 180 173 171 181 181 179 193 201 186 182 185 192 201 203 209 210 202 202 203 227 208 178 166 176 189 211 162 116 110 139 163 181 185 172 164 173 165 148 149 148 134 135
334 334 283 68 48 67 166 196 180 182 223 255 227 219 217 222 337 338 334 346 340 325 320 257 188 170 160 150 163 176 201 173 173 176 176 182 186 181 181 179 182 191 188 174 166 175 183 160 158 167 174 179 190 196 188 191 189 184 200 207 206 213 218 202 133 58 85 198 180 184 191 146 132 152 158 165 171 177 178 169 168 170 157 149 151 145 138 143
336 339 100 54 42 60 136 196 171 169 223 253 241 255 295 7 3 340 331 337 319 307 320 192 176 186 162 151 163 171 170 169 174 178 179 182 188 185 181 177 182 194 197 182 169 177 175 147 155 164 167 178 188 188 190 202 204 189 198 201 195 214 238 222 195 169 196 216 189 183 197 183 175 176 160 172 178 172 173 172 171 170 162 156 151 146 148 150
326 311 116 44 21 19 58 165 172 185 224 243 251 280 309 302 357 346 329 331 319 304 328 26 102 207 163 151 157 166 167 166 174 180 174 178 186 179 179 174 175 192 200 188 173 181 172 143 159 174 169 171 181 184 189 204 216 223 210 196 191 205 212 206 210 199 198 214 205 195 207 202 193 180 164 175 179 173 175 174 172 175 171 162 154 153 151 147
300 231 120 18 1 171 138 163 190 221 240 258 264 263 316 316 342 344 329 327 320 300 331 360 354 235 163 150 150 162 173 170 172 174 172 184 181 175 182 173 170 188 196 189 178 178 176 149 157 177 171 164 176 193 195 192 202 229 223 204 202 212 211 206 215 217 205 212 211 202 205 209 203 182 170 175 178 177 178 177 179 182 179 170 157 154 151 147
298 234 47 12 9 154 164 199 226 256 258 282 306 300 320 326 337 337 326 322 318 299 331 340 336 16 137 145 147 159 178 171 170 173 176 180 159 169 186 179 170 181 186 192 187 174 180 163 151 170 172 171 182 197 198 187 183 202 212 202 198 207 217 214 214 219 224 220 208 203 210 210 187 168 172 177 177 179 182 182 185 185 179 168 156 153 150 145
310 249 45 17 55 157 184 219 233 284 288 308 328 325 350 350 328 316 313 312 305 274 280 310 324 1 130 151 147 154 169 164 170 180 171 172 163 169 184 178 171 172 176 191 189 176 186 174 156 166 173 182 191 192 198 196 188 196 208 202 199 200 202 210 211 208 220 234 223 215 216 185 138 162 183 182 177 182 187 184 181 180 174 161 152 151 144 141
336 38 40 9 162 184 234 247 201 293 302 11 350 319 341 341 312 306 313 310 304 285 265 290 317 339 113 145 142 154 167 160 168 179 167 175 183 174 175 177 176 172 172 183 178 172 192 181 165 166 173 187 187 186 201 204 193 199 213 210 206 204 202 210 208 194 203 227 244 230 215 150 127 172 188 180 176 181 184 178 172 169 163 152 146 144 141 142
34 49 51 325 213 252 276 277 75 325 343 27 346 291 289 294 290 301 313 313 315 320 313 305 302 330 38 116 144 159 171 161 164 171 168 177 179 151 168 177 179 176 177 176 166 162 187 185 172 167 171 176 165 176 203 212 202 203 211 212 211 208 207 216 222 208 205 206 198 210 207 152 142 174 162 160 169 169 171 173 167 159 151 147 144 142 144 146
41 23 62 132 239 293 308 357 16 349 11 5 322 288 263 262 276 291 307 319 324 322 321 309 292 341 9 65 153 156 189 176 170 166 162 171 158 139 167 179 182 181 181 172 159 161 181 182 175 169 169 170 165 178 198 208 208 206 206 211 216 212 205 211 225 223 215 209 204 212 212 148 133 166 175 170 166 163 168 171 162 154 151 148 144 144 147 147
297 264 69 121 263 302 323 360 335 329 345 335 313 297 278 263 266 276 293 303 301 298 304 302 297 315 331 224 159 158 215 203 176 163 148 150 140 145 173 181 184 186 186 180 170 171 184 185 183 179 175 178 184 188 192 195 201 209 208 208 212 212 204 203 209 210 214 213 207 215 214 128 123 163 177 178 173 164 163 159 152 151 151 148 146 147 149 149
305 13 12 168 209 280 278 297 292 291 322 326 316 305 301 311 314 283 283 290 292 293 297 300 298 288 183 180 162 149 163 170 134 141 159 147 127 151 176 178 183 186 182 182 182 181 185 189 197 201 193 191 191 186 185 188 194 204 209 209 209 210 208 207 209 214 217 212 209 217 208 149 140 169 176 177 178 167 162 158 151 150 150 148 148 148 149 152
319 358 360 345 295 255 239 248 258 260 300 321 324 318 318 326 333 338 259 289 321 311 294 277 264 212 119 145 156 145 153 157 123 120 164 147 111 135 167 175 185 180 167 179 189 190 189 186 198 213 208 202 198 179 178 192 198 201 206 211 211 209 210 212 216 218 216 217 220 213 198 175 163 172 176 179 181 174 167 163 155 152 151 147 146 148 150 154
348 350 336 333 316 280 279 291 273 272 279 285 296 303 310 323 334 352 359 307 323 316 295 144 129 112 73 88 154 150 153 155 127 117 155 150 125 135 156 173 186 177 168 185 190 190 202 187 190 202 199 199 200 177 180 196 201 200 203 208 209 209 211 213 217 221 219 226 229 197 191 198 189 179 180 180 181 178 167 159 150 147 148 145 146 149 152 155
351 326 278 284 295 292 300 301 282 273 271 269 276 286 297 318 337 358 356 291 325 330 297 7 52 78 82 48 156 135 126 125 111 103 108 143 141 144 153 168 185 180 181 190 187 194 218 181 177 192 190 178 182 174 189 202 204 203 206 208 209 212 214 213 215 217 218 230 236 206 200 211 204 194 188 175 169 166 156 153 149 146 149 147 147 150 153 156
337 322 311 290 282 275 276 276 266 265 263 254 259 281 295 317 344 355 304 249 311 348 317 358 22 48 79 89 71 85 61 31 60 71 38 82 136 147 157 164 177 183 187 189 180 193 216 174 167 188 187 167 165 175 194 205 210 210 212 212 213 215 216 215 214 214 214 221 226 219 212 210 195 185 174 154 147 150 153 158 156 152 152 149 148 153 156 158
326 297 298 300 299 284 264 240 238 260 263 242 253 306 318 327 350 349 335 257 276 291 299 355 8 24 91 119 110 72 42 5 5 22 4 12 73 57 125 154 173 181 184 185 174 186 208 179 163 188 195 173 170 185 191 198 212 218 217 216 215 216 217 215 214 216 215 215 215 217 217 196 148 147 150 144 149 157 160 164 163 159 160 156 155 158 159 160
335 301 294 292 290 295 293 276 251 260 275 262 265 300 309 314 330 336 338 357 327 281 287 359 4 2 108 106 76 45 14 338 333 344 340 344 11 11 36 119 188 188 182 180 175 186 200 188 170 190 199 177 174 188 190 190 211 221 220 217 218 221 223 221 219 217 215 217 216 213 219 196 149 150 152 155 167 174 175 174 169 167 168 164 161 162 161 158